Terminal Aerodrome Forecast
Issued by NWS

Home | Current Version | Previous Version | Text Only | Print | Product List | Glossary On
Versions: 1 2 3 4 5 6 7 8 9 10 11 12 13 14 15 16 17 18
644
FTUS42 KILM 192005 AAB
TAFCRE
TAF AMD
KCRE 192005Z 1920/2018 20011KT P6SM VCTS SCT030CB BKN120
      TEMPO 1920/1922 1SM +TSRA BKN030CB
     FM192200 21009KT P6SM SCT040 BKN250
     FM200300 23004KT P6SM SCT250
      TEMPO 2008/2012 3SM BR
     FM201200 VRB03KT 6SM HZ BR BKN250=

USA.gov is the U.S. government's official web portal to all federal, state and local government web resources and services.